• Processing (Info)

  • MPEC 2020-U249 : 2020 UK6

    The following Minor Planet Electronic Circular may be linked-to from your own Web pages, but must not otherwise be redistributed electronically.

    A form allowing access to any MPEC is at the bottom of this page.


    Read MPEC 2020-U248 Read MPEC 2020-U250


    M.P.E.C. 2020-U249                             Issued 2020 October 27, 14:29 UT
    
         The Minor Planet Electronic Circulars contain information on unusual
             minor planets and routine data on comets.  They are published
        on behalf of Division F of the International Astronomical Union by the
              Minor Planet Center, Smithsonian Astrophysical Observatory,
                              Cambridge, MA 02138, U.S.A.
    
                 Prepared using the Tamkin Foundation Computer Network
    
                                  MPC@CFA.HARVARD.EDU
                URL https://www.minorplanetcenter.net/    ISSN 1523-6714
    
                                    2020 UK6                                 
    
    
    Observations:
         K20U06K* C2020 10 24.28012100 51 10.74 +05 58 51.0          20.60GVEU249G96
         K20U06K  C2020 10 24.29129500 51 02.03 +05 59 50.5          20.41GVEU249G96
         K20U06K  C2020 10 24.29688000 50 57.72 +06 00 20.0          20.54GVEU249G96
         K20U06K KC2020 10 24.37050900 50 00.83 +06 06 48.8          20.02GVEU249I52
         K20U06K KC2020 10 24.37221100 49 59.48 +06 06 57.7          20.07GVEU249I52
         K20U06K KC2020 10 24.37391300 49 58.17 +06 07 07.5          21.05GVEU249I52
         K20U06K KC2020 10 24.37561500 49 56.81 +06 07 16.8          20.54GVEU249I52
         K20U06K KC2020 10 27.22533100 12 24.35 +10 26 19.5          21.15GVEU249G96
         K20U06K KC2020 10 27.22672400 12 23.21 +10 26 27.5          20.63GVEU249G96
         K20U06K KC2020 10 27.22811700 12 22.03 +10 26 34.9          20.68GVEU249G96
         K20U06K KC2020 10 27.22950800 12 20.78 +10 26 42.9          20.89GVEU249G96
    
    Observer details:
    G96 Mt. Lemmon Survey.  Observer T. A. Pruyne.  Measurers E. J. Christensen,
        G. A. Farneth, D. C. Fuls, A. R. Gibbs, A. D. Grauer, H. Groeller, R. A.
        Kowalski, S. M. Larson, G. J. Leonard, T. A. Pruyne, D. Rankin, R. L.
        Seaman, F. C. Shelly, K. W. Wierzchos.  1.5-m reflector + 10K CCD.
    I52 Steward Observatory, Mt. Lemmon Station.  Observer R. A. Kowalski.
        Measurers E. J. Christensen, G. A. Farneth, D. C. Fuls, A. R. Gibbs, A. D.
        Grauer, H. Groeller, R. A. Kowalski, S. M. Larson, G. J. Leonard, T. A.
        Pruyne, D. Rankin, R. L. Seaman, F. C. Shelly, K. W. Wierzchos.  1.0-m
        reflector + CCD.
    
    Orbital elements:
    2020 UK6                                                 Earth MOID = 0.0923 AU
    Epoch 2020 Dec. 17.0 TT = JDT 2459200.5                 Pike                    
    M 316.58801              (2000.0)            P               Q                  
    n   1.03780311     Peri.  133.76583     -0.92577866     -0.32426328             
    a   0.9661830      Node    29.00860     +0.10795617     -0.71949425             
    e   0.3461973      Incl.   23.63142     +0.36232491     -0.61415092             
    P   0.95           H   24.20          G   0.15           U   9                  
    Residuals in seconds of arc
    201024 G96  0.4+  0.2-    201024 I52  0.2+  0.5-    201027 G96  0.4+  0.1+
    201024 G96  0.4-  0.1+    201024 I52  0.2+  0.3+    201027 G96  0.4+  0.1-
    201024 G96  0.1-  0.1+    201024 I52  0.5-  0.6+    201027 G96  0.6-  0.2+
    201024 I52  0.7+  0.4-    201027 G96  0.2-  0.2-
    
    Ephemeris:
    2020 UK6                 a,e,i = 0.97, 0.35, 24                  q = 0.6317
    Date    TT    R. A. (2000) Decl.     Delta      r    Elong.  Phase     V
    2020 09 27    03 27 42.8 -11 38 54   0.3064  1.2230   130.3    38.7    23.6
    ...
    2020 10 12    02 40 21.0 -06 42 58   0.1894  1.1703   153.3    22.5    22.0
    ...
    2020 10 20    01 39 25.4 +00 15 35   0.1429  1.1368   169.9     8.8    20.9
    ...
    2020 10 26    00 28 58.8 +08 34 20   0.1241  1.1092   156.8    20.7    20.9
    2020 10 27    00 15 30.1 +10 06 02   0.1227  1.1044   152.8    24.3    21.0
    2020 10 28    00 01 43.6 +11 37 25   0.1219  1.0995   148.7    28.0    21.1
    ...
    2020 11 03    22 39 00.1 +19 36 39   0.1282  1.0692   124.2    50.1    21.8
    ...
    2020 11 11    21 11 11.1 +25 21 06   0.1585  1.0259    98.6    72.6    22.8
    ...
    2020 11 26    19 41 00.4 +27 54 48   0.2383  0.9368    71.0    95.1    24.3
    
    M. P. C. Staff               (C) Copyright 2020 MPC           M.P.E.C. 2020-U249
    


    Read MPEC 2020-U248 Read MPEC 2020-U250


    MPEC number:

    Enter an MPEC number in one of the following forms:

    • 1997-B01 (the full form)
    • J97B01 (the packed version of the full form)
    • B01 (the abbreviated form)